User: anonymous   Login
Location: Chenango Forks
(42.2242°N, 75.8278°W)
Time: 20:37:39
(UTC-04:00)
Language:

Okean 3 Rocket - Orbit

View from above orbital plane
View from above orbital plane
View from above satellite
View from above satellite

Ground track
Ground track

The orbit data is extracted from the following two-line orbital elements,

1 21398U 91039B   14296.83505882  .00000766  00000-0  99611-4 0  8859
2 21398 082.5255 046.4771 0023119 112.5124 003.6477 14.79251230260877
Epoch (UTC): 23 October 2014 20:02:29
Eccentricity: 0.0023119
inclination: 82.5255°
perigee height: 615 km
apogee height: 648 km
right ascension of ascending node: 46.4771°
argument of perigee: 112.5124°
revolutions per day: 14.79251230
mean anomaly at epoch: 3.6477°
orbit number at epoch: 26087

The dashed part of the orbit path shows where the satellite is in the earth's shadow,  

DLR